| time (UTC) | temp F | wind direction | speed MPH | gust MPH | rain 1hr in | rain 24hr in | rain mn in | humidity % | barometer mb |
| 20260505121503 | 72 | 192 | 5.0 | 13.0 | 0.00 | 0.00 | 0.00 | 87 | 1004.6 |
| 20260505121003 | 72 | 190 | 5.0 | 13.0 | 0.00 | 0.00 | 0.00 | 87 | 1004.6 |
| 20260505120503 | 72 | 192 | 4.0 | 12.0 | 0.00 | 0.00 | 0.00 | 87 | 1004.5 |
| 20260505120004 | 72 | 186 | 5.0 | 12.0 | 0.00 | 0.00 | 0.00 | 87 | 1004.4 |
| 20260505115503 | 72 | 194 | 5.0 | 12.0 | 0.00 | 0.00 | 0.00 | 87 | 1004.4 |
| 20260505115002 | 72 | 200 | 6.0 | 13.0 | 0.00 | 0.00 | 0.00 | 87 | 1004.4 |
| 20260505114503 | 71 | 194 | 5.0 | 13.0 | 0.00 | 0.00 | 0.00 | 87 | 1004.4 |
| 20260505114003 | 71 | 188 | 5.0 | 9.0 | 0.00 | 0.00 | 0.00 | 87 | 1004.3 |
| 20260505112503 | 72 | 183 | 5.0 | 13.0 | 0.00 | 0.00 | 0.00 | 87 | 1004.3 |
| 20260505112003 | 72 | 186 | 5.0 | 12.0 | 0.00 | 0.00 | 0.00 | 87 | 1004.2 |
| 20260505111503 | 71 | 193 | 5.0 | 12.0 | 0.00 | 0.00 | 0.00 | 87 | 1004.3 |
| 20260505111003 | 71 | 198 | 5.0 | 13.0 | 0.00 | 0.00 | 0.00 | 87 | 1004.3 |
| 20260505102003 | 72 | 187 | 5.0 | 14.0 | 0.00 | 0.00 | 0.00 | 86 | 1004.4 |
| 20260505100503 | 72 | 187 | 6.0 | 12.0 | 0.00 | 0.00 | 0.00 | 86 | 1004.4 |
| 20260505100003 | 72 | 183 | 5.0 | 13.0 | 0.00 | 0.00 | 0.00 | 86 | 1004.5 |
| 20260505094503 | 72 | 185 | 6.0 | 13.0 | 0.00 | 0.00 | 0.00 | 86 | 1004.7 |
| 20260505094003 | 72 | 191 | 6.0 | 14.0 | 0.00 | 0.00 | 0.00 | 86 | 1004.7 |
| 20260505093502 | 72 | 192 | 5.0 | 14.0 | 0.00 | 0.00 | 0.00 | 86 | 1004.7 |
| 20260505093004 | 72 | 190 | 5.0 | 14.0 | 0.00 | 0.00 | 0.00 | 86 | 1004.8 |
| 20260505092503 | 72 | 188 | 5.0 | 14.0 | 0.00 | 0.00 | 0.00 | 86 | 1004.8 |
| 20260505092003 | 72 | 192 | 6.0 | 13.0 | 0.00 | 0.00 | 0.00 | 86 | 1004.7 |
| 20260505091503 | 72 | 194 | 7.0 | 17.0 | 0.00 | 0.00 | 0.00 | 86 | 1004.7 |
| 20260505091003 | 72 | 191 | 6.0 | 17.0 | 0.00 | 0.00 | 0.00 | 86 | 1004.8 |
| 20260505090503 | 72 | 195 | 7.0 | 16.0 | 0.00 | 0.00 | 0.00 | 86 | 1004.7 |
| 20260505090003 | 72 | 197 | 7.0 | 15.0 | 0.00 | 0.00 | 0.00 | 86 | 1004.6 |
| 20260505085503 | 72 | 194 | 6.0 | 15.0 | 0.00 | 0.00 | 0.00 | 86 | 1004.6 |
| 20260505085003 | 72 | 194 | 7.0 | 15.0 | 0.00 | 0.00 | 0.00 | 86 | 1004.5 |
| 20260505084503 | 72 | 196 | 6.0 | 15.0 | 0.00 | 0.00 | 0.00 | 86 | 1004.6 |
| 20260505084003 | 72 | 195 | 7.0 | 17.0 | 0.00 | 0.00 | 0.00 | 86 | 1004.6 |
| 20260505083503 | 72 | 193 | 7.0 | 18.0 | 0.00 | 0.00 | 0.00 | 86 | 1004.6 |
| 20260505083003 | 72 | 198 | 6.0 | 18.0 | 0.00 | 0.00 | 0.00 | 86 | 1004.7 |
| 20260505082003 | 71 | 189 | 6.0 | 17.0 | 0.00 | 0.00 | 0.00 | 86 | 1004.7 |
| 20260505081504 | 71 | 190 | 7.0 | 17.0 | 0.00 | 0.00 | 0.00 | 86 | 1004.7 |
| 20260505080503 | 72 | 188 | 6.0 | 19.0 | 0.00 | 0.00 | 0.00 | 86 | 1004.7 |
| 20260505075503 | 72 | 192 | 7.0 | 19.0 | 0.00 | 0.00 | 0.00 | 86 | 1005.1 |
| 20260505075003 | 72 | 194 | 6.0 | 14.0 | 0.00 | 0.00 | 0.00 | 86 | 1005.1 |
| 20260505074504 | 72 | 196 | 6.0 | 15.0 | 0.00 | 0.00 | 0.00 | 86 | 1005.2 |
| 20260505074003 | 72 | 196 | 7.0 | 17.0 | 0.00 | 0.00 | 0.00 | 86 | 1005.3 |
| 20260505073504 | 72 | 193 | 7.0 | 17.0 | 0.00 | 0.00 | 0.00 | 86 | 1005.5 |
| 20260505073003 | 72 | 191 | 6.0 | 18.0 | 0.00 | 0.00 | 0.00 | 86 | 1005.5 |
| 20260505072503 | 72 | 189 | 6.0 | 18.0 | 0.00 | 0.00 | 0.00 | 85 | 1005.6 |
| 20260505072003 | 72 | 189 | 5.0 | 17.0 | 0.00 | 0.00 | 0.00 | 85 | 1005.6 |
| 20260505071503 | 72 | 190 | 6.0 | 17.0 | 0.00 | 0.00 | 0.00 | 85 | 1005.8 |
| 20260505070503 | 72 | 192 | 6.0 | 23.0 | 0.00 | 0.00 | 0.00 | 85 | 1005.7 |
| 20260505070003 | 72 | 189 | 7.0 | 23.0 | 0.00 | 0.00 | 0.00 | 84 | 1005.8 |
| 20260505065503 | 72 | 189 | 6.0 | 18.0 | 0.00 | 0.00 | 0.00 | 84 | 1005.8 |
| 20260505065003 | 72 | 192 | 6.0 | 16.0 | 0.00 | 0.00 | 0.00 | 84 | 1005.9 |
| 20260505064503 | 72 | 185 | 5.0 | 16.0 | 0.00 | 0.00 | 0.00 | 84 | 1005.9 |
| 20260505064004 | 72 | 178 | 5.0 | 12.0 | 0.00 | 0.00 | 0.00 | 84 | 1006.0 |
| 20260505063503 | 72 | 183 | 5.0 | 12.0 | 0.00 | 0.00 | 0.00 | 84 | 1005.9 |
| 20260505063003 | 72 | 186 | 5.0 | 13.0 | 0.00 | 0.00 | 0.00 | 84 | 1006.1 |
| 20260505062504 | 72 | 187 | 5.0 | 13.0 | 0.00 | 0.00 | 0.00 | 84 | 1005.9 |
| 20260505062003 | 72 | 188 | 4.0 | 12.0 | 0.00 | 0.00 | 0.00 | 83 | 1006.0 |
| 20260505060503 | 72 | 185 | 5.0 | 15.0 | 0.00 | 0.00 | 0.00 | 83 | 1006.2 |
| 20260505060003 | 72 | 189 | 5.0 | 11.0 | 0.00 | 0.00 | 0.00 | 83 | 1006.2 |
| 20260505055504 | 72 | 190 | 5.0 | 11.0 | 0.00 | 0.00 | 0.00 | 82 | 1006.1 |
| 20260505055003 | 72 | 187 | 4.0 | 14.0 | 0.00 | 0.00 | 0.00 | 82 | 1006.2 |
| 20260505054504 | 72 | 186 | 5.0 | 14.0 | 0.00 | 0.00 | 0.00 | 82 | 1006.2 |
| 20260505054003 | 72 | 182 | 5.0 | 14.0 | 0.00 | 0.00 | 0.00 | 82 | 1006.3 |
| 20260505053503 | 72 | 182 | 5.0 | 14.0 | 0.00 | 0.00 | 0.00 | 82 | 1006.3 |
| 20260505053004 | 72 | 181 | 5.0 | 12.0 | 0.00 | 0.00 | 0.00 | 81 | 1006.3 |
| 20260505051504 | 72 | 181 | 4.0 | 12.0 | 0.00 | 0.00 | 0.00 | 81 | 1006.6 |
| 20260505050504 | 72 | 181 | 4.0 | 12.0 | 0.00 | 0.00 | 0.00 | 81 | 1006.5 |
| 20260505041501 | 73 | 171 | 3.0 | 10.0 | 0.00 | 0.00 | 0.00 | 79 | 1006.8 |
| 20260505041002 | 73 | 171 | 3.0 | 7.0 | 0.00 | 0.00 | 0.00 | 79 | 1006.8 |
| 20260505040501 | 73 | 171 | 3.0 | 7.0 | 0.00 | 0.00 | 0.00 | 79 | 1006.9 |
| 20260505040002 | 73 | 173 | 3.0 | 8.0 | 0.00 | 0.00 | 0.00 | 79 | 1006.8 |
| 20260505035501 | 73 | 177 | 3.0 | 8.0 | 0.00 | 0.00 | 0.00 | 78 | 1006.8 |
| 20260505035001 | 73 | 182 | 3.0 | 8.0 | 0.00 | 0.00 | 0.00 | 78 | 1006.6 |
| 20260505034502 | 73 | 175 | 3.0 | 8.0 | 0.00 | 0.00 | 0.00 | 78 | 1006.5 |
| 20260505033001 | 73 | 166 | 3.0 | 7.0 | 0.00 | 0.00 | 0.00 | 77 | 1006.6 |
| 20260505032502 | 73 | 170 | 3.0 | 7.0 | 0.00 | 0.00 | 0.00 | 77 | 1006.6 |
| 20260505032001 | 74 | 181 | 3.0 | 8.0 | 0.00 | 0.00 | 0.00 | 77 | 1006.8 |
| 20260505025501 | 74 | 183 | 2.0 | 8.0 | 0.00 | 0.00 | 0.00 | 76 | 1006.9 |
| 20260505025002 | 74 | 184 | 2.0 | 7.0 | 0.00 | 0.00 | 0.00 | 76 | 1006.8 |
| 20260505024502 | 74 | 187 | 1.0 | 5.0 | 0.00 | 0.00 | 0.00 | 76 | 1006.9 |
| 20260505024001 | 74 | 181 | 1.0 | 4.0 | 0.00 | 0.00 | 0.00 | 75 | 1006.7 |
| 20260505023001 | 74 | 171 | 2.0 | 8.0 | 0.00 | 0.00 | 0.00 | 75 | 1006.4 |
| 20260505022502 | 75 | 169 | 3.0 | 8.0 | 0.00 | 0.00 | 0.00 | 75 | 1006.5 |
| 20260505022001 | 75 | 167 | 3.0 | 9.0 | 0.00 | 0.00 | 0.00 | 74 | 1006.4 |
| 20260505021501 | 75 | 182 | 4.0 | 9.0 | 0.00 | 0.00 | 0.00 | 74 | 1006.4 |
| 20260505021001 | 75 | 188 | 3.0 | 7.0 | 0.00 | 0.00 | 0.00 | 74 | 1006.3 |
| 20260505020502 | 75 | 181 | 3.0 | 8.0 | 0.00 | 0.00 | 0.00 | 74 | 1006.4 |
| 20260505020002 | 75 | 183 | 3.0 | 8.0 | 0.00 | 0.00 | 0.00 | 73 | 1006.4 |
| 20260505015501 | 75 | 179 | 3.0 | 9.0 | 0.00 | 0.00 | 0.00 | 73 | 1006.5 |
| 20260505015002 | 76 | 177 | 3.0 | 9.0 | 0.00 | 0.00 | 0.00 | 73 | 1006.5 |
| 20260505014502 | 76 | 184 | 4.0 | 9.0 | 0.00 | 0.00 | 0.00 | 73 | 1006.5 |
| 20260505014001 | 76 | 187 | 4.0 | 12.0 | 0.00 | 0.00 | 0.00 | 72 | 1006.4 |
| 20260505013502 | 76 | 187 | 4.0 | 13.0 | 0.00 | 0.00 | 0.00 | 72 | 1006.4 |
| 20260505013002 | 76 | 185 | 3.0 | 13.0 | 0.00 | 0.00 | 0.00 | 72 | 1006.5 |
| 20260505012501 | 76 | 175 | 4.0 | 8.0 | 0.00 | 0.00 | 0.00 | 72 | 1006.5 |
| 20260505012002 | 76 | 183 | 4.0 | 11.0 | 0.00 | 0.00 | 0.00 | 71 | 1006.4 |
| 20260505011501 | 76 | 186 | 4.0 | 11.0 | 0.00 | 0.00 | 0.00 | 71 | 1006.4 |
| 20260505010502 | 77 | 179 | 3.0 | 8.0 | 0.00 | 0.00 | 0.00 | 71 | 1006.4 |
| 20260505005502 | 77 | 190 | 4.0 | 10.0 | 0.00 | 0.00 | 0.00 | 70 | 1006.4 |
| 20260505005001 | 77 | 185 | 4.0 | 10.0 | 0.00 | 0.00 | 0.00 | 70 | 1006.4 |
| 20260505004502 | 78 | 188 | 5.0 | 10.0 | 0.00 | 0.00 | 0.00 | 69 | 1006.6 |
| 20260505004001 | 78 | 185 | 4.0 | 13.0 | 0.00 | 0.00 | 0.00 | 69 | 1006.5 |
| 20260505003001 | 79 | 187 | 5.0 | 14.0 | 0.00 | 0.00 | 0.00 | 67 | 1006.3 |
| 20260505002502 | 79 | 186 | 6.0 | 12.0 | 0.00 | 0.00 | 0.00 | 67 | 1006.5 |
| 20260505002002 | 79 | 189 | 7.0 | 13.0 | 0.00 | 0.00 | 0.00 | 67 | 1006.6 |
| 20260505001502 | 79 | 192 | 7.0 | 15.0 | 0.00 | 0.00 | 0.00 | 67 | 1006.6 |
| 20260505001001 | 79 | 188 | 7.0 | 15.0 | 0.00 | 0.00 | 0.00 | 67 | 1006.6 |
| 20260505000502 | 79 | 183 | 7.0 | 15.0 | 0.00 | 0.00 | 0.00 | 67 | 1006.5 |
| 20260505000002 | 79 | 188 | 7.0 | 17.0 | 0.00 | 0.00 | 0.00 | 66 | 1006.6 |
| 20260504235502 | 79 | 192 | 7.0 | 17.0 | 0.00 | 0.00 | 0.00 | 66 | 1006.7 |
| 20260504235002 | 79 | 189 | 6.0 | 17.0 | 0.00 | 0.00 | 0.00 | 66 | 1006.8 |
| 20260504234501 | 79 | 190 | 7.0 | 18.0 | 0.00 | 0.00 | 0.00 | 66 | 1007.0 |
| 20260504234002 | 79 | 190 | 7.0 | 18.0 | 0.00 | 0.00 | 0.00 | 66 | 1006.8 |
| 20260504233501 | 79 | 191 | 6.0 | 16.0 | 0.00 | 0.00 | 0.00 | 65 | 1006.9 |
| 20260504233002 | 80 | 188 | 6.0 | 14.0 | 0.00 | 0.00 | 0.00 | 65 | 1006.8 |
| 20260504232501 | 80 | 184 | 7.0 | 17.0 | 0.00 | 0.00 | 0.00 | 65 | 1006.8 |
| 20260504232002 | 80 | 181 | 7.0 | 17.0 | 0.00 | 0.00 | 0.00 | 65 | 1006.8 |
| 20260504231502 | 80 | 182 | 6.0 | 15.0 | 0.00 | 0.00 | 0.00 | 64 | 1006.9 |
| 20260504231002 | 81 | 190 | 7.0 | 16.0 | 0.00 | 0.00 | 0.00 | 64 | 1007.0 |
| 20260504230502 | 81 | 194 | 7.0 | 18.0 | 0.00 | 0.00 | 0.00 | 64 | 1007.2 |
| 20260504230002 | 81 | 186 | 7.0 | 18.0 | 0.00 | 0.00 | 0.00 | 63 | 1007.3 |
| 20260504225502 | 81 | 183 | 7.0 | 19.0 | 0.00 | 0.00 | 0.00 | 63 | 1007.4 |
| 20260504225002 | 81 | 186 | 7.0 | 19.0 | 0.00 | 0.00 | 0.00 | 63 | 1007.4 |
| 20260504224501 | 81 | 190 | 7.0 | 17.0 | 0.00 | 0.00 | 0.00 | 63 | 1007.3 |
| 20260504224002 | 81 | 191 | 8.0 | 19.0 | 0.00 | 0.00 | 0.00 | 63 | 1007.3 |
| 20260504222001 | 82 | 187 | 6.0 | 16.0 | 0.00 | 0.00 | 0.00 | 63 | 1007.3 |
| 20260504221502 | 81 | 184 | 6.0 | 15.0 | 0.00 | 0.00 | 0.00 | 63 | 1007.4 |
| 20260504220502 | 81 | 183 | 6.0 | 15.0 | 0.00 | 0.00 | 0.00 | 64 | 1007.7 |
| 20260504220002 | 81 | 186 | 6.0 | 14.0 | 0.00 | 0.00 | 0.00 | 64 | 1007.6 |
| 20260504215501 | 81 | 186 | 7.0 | 19.0 | 0.00 | 0.00 | 0.00 | 64 | 1007.7 |
| 20260504215002 | 81 | 186 | 7.0 | 19.0 | 0.00 | 0.00 | 0.00 | 63 | 1007.8 |
| 20260504214502 | 81 | 189 | 6.0 | 14.0 | 0.00 | 0.00 | 0.00 | 63 | 1007.9 |
| 20260504214001 | 81 | 185 | 7.0 | 17.0 | 0.00 | 0.00 | 0.00 | 63 | 1007.9 |
| 20260504213501 | 81 | 188 | 7.0 | 17.0 | 0.00 | 0.00 | 0.00 | 62 | 1008.1 |
| 20260504213002 | 82 | 189 | 7.0 | 14.0 | 0.00 | 0.00 | 0.00 | 61 | 1008.1 |
| 20260504212502 | 82 | 186 | 7.0 | 16.0 | 0.00 | 0.00 | 0.00 | 61 | 1008.2 |
| 20260504212002 | 82 | 189 | 7.0 | 16.0 | 0.00 | 0.00 | 0.00 | 60 | 1008.4 |
| 20260504211502 | 82 | 193 | 6.0 | 13.0 | 0.00 | 0.00 | 0.00 | 61 | 1008.3 |
| 20260504210003 | 82 | 189 | 6.0 | 16.0 | 0.00 | 0.00 | 0.00 | 60 | 1008.6 |
| 20260504205501 | 82 | 187 | 5.0 | 15.0 | 0.00 | 0.00 | 0.00 | 61 | 1008.7 |
| 20260504204502 | 82 | 193 | 5.0 | 15.0 | 0.00 | 0.00 | 0.00 | 60 | 1008.8 |
| 20260504204002 | 82 | 182 | 6.0 | 17.0 | 0.00 | 0.00 | 0.00 | 61 | 1009.0 |
| 20260504203502 | 81 | 182 | 7.0 | 17.0 | 0.00 | 0.00 | 0.00 | 61 | 1009.0 |
| 20260504203002 | 81 | 183 | 7.0 | 20.0 | 0.00 | 0.00 | 0.00 | 60 | 1009.1 |
| 20260504202001 | 81 | 193 | 8.0 | 17.0 | 0.00 | 0.00 | 0.00 | 58 | 1009.5 |
| 20260504201502 | 81 | 191 | 7.0 | 18.0 | 0.00 | 0.00 | 0.00 | 58 | 1009.6 |
| 20260504201002 | 82 | 190 | 7.0 | 18.0 | 0.00 | 0.00 | 0.00 | 58 | 1009.7 |
| 20260504200502 | 81 | 189 | 7.0 | 17.0 | 0.00 | 0.00 | 0.00 | 58 | 1009.8 |
| 20260504200002 | 81 | 183 | 6.0 | 14.0 | 0.00 | 0.00 | 0.00 | 58 | 1009.8 |
| 20260504195002 | 81 | 188 | 8.0 | 16.0 | 0.00 | 0.00 | 0.00 | 58 | 1009.9 |
| 20260504194502 | 81 | 185 | 8.0 | 17.0 | 0.00 | 0.00 | 0.00 | 57 | 1010.0 |
| 20260504194002 | 81 | 192 | 7.0 | 17.0 | 0.00 | 0.00 | 0.00 | 57 | 1010.0 |
| 20260504193502 | 82 | 193 | 6.0 | 15.0 | 0.00 | 0.00 | 0.00 | 57 | 1010.2 |
| 20260504193002 | 82 | 191 | 6.0 | 15.0 | 0.00 | 0.00 | 0.00 | 57 | 1010.2 |
| 20260504192502 | 81 | 191 | 6.0 | 15.0 | 0.00 | 0.00 | 0.00 | 57 | 1010.5 |
| 20260504192002 | 81 | 188 | 6.0 | 17.0 | 0.00 | 0.00 | 0.00 | 58 | 1010.4 |
| 20260504190502 | 80 | 192 | 8.0 | 20.0 | 0.00 | 0.00 | 0.00 | 57 | 1010.7 |
| 20260504190002 | 81 | 195 | 7.0 | 17.0 | 0.00 | 0.00 | 0.00 | 57 | 1010.7 |
| 20260504185502 | 81 | 196 | 5.0 | 15.0 | 0.00 | 0.00 | 0.00 | 56 | 1010.7 |
| 20260504185002 | 80 | 194 | 6.0 | 15.0 | 0.00 | 0.00 | 0.00 | 57 | 1010.9 |
| 20260504184502 | 80 | 192 | 8.0 | 18.0 | 0.00 | 0.00 | 0.00 | 57 | 1010.9 |
| 20260504184003 | 80 | 186 | 8.0 | 20.0 | 0.00 | 0.00 | 0.00 | 56 | 1011.0 |
| 20260504183502 | 80 | 190 | 7.0 | 20.0 | 0.00 | 0.00 | 0.00 | 56 | 1011.1 |
| 20260504183002 | 80 | 193 | 7.0 | 20.0 | 0.00 | 0.00 | 0.00 | 56 | 1011.1 |
| 20260504182502 | 80 | 187 | 7.0 | 20.0 | 0.00 | 0.00 | 0.00 | 55 | 1011.4 |
| 20260504182002 | 80 | 191 | 6.0 | 17.0 | 0.00 | 0.00 | 0.00 | 55 | 1011.4 |
| 20260504181502 | 80 | 193 | 6.0 | 14.0 | 0.00 | 0.00 | 0.00 | 54 | 1011.3 |
| 20260504181002 | 80 | 182 | 6.0 | 18.0 | 0.00 | 0.00 | 0.00 | 54 | 1011.3 |
| 20260504180502 | 80 | 185 | 5.0 | 18.0 | 0.00 | 0.00 | 0.00 | 54 | 1011.4 |
| 20260504180002 | 79 | 194 | 6.0 | 14.0 | 0.00 | 0.00 | 0.00 | 56 | 1011.4 |
| 20260504175502 | 79 | 191 | 7.0 | 20.0 | 0.00 | 0.00 | 0.00 | 55 | 1011.6 |
| 20260504175002 | 79 | 191 | 7.0 | 20.0 | 0.00 | 0.00 | 0.00 | 54 | 1011.8 |
| 20260504174502 | 78 | 194 | 8.0 | 16.0 | 0.00 | 0.00 | 0.00 | 55 | 1011.8 |
| 20260504174002 | 78 | 191 | 8.0 | 16.0 | 0.00 | 0.00 | 0.00 | 56 | 1011.8 |
| 20260504173503 | 78 | 185 | 7.0 | 17.0 | 0.00 | 0.00 | 0.00 | 55 | 1011.8 |
| 20260504173002 | 78 | 189 | 5.0 | 17.0 | 0.00 | 0.00 | 0.00 | 56 | 1011.9 |
| 20260504172503 | 78 | 197 | 6.0 | 14.0 | 0.00 | 0.00 | 0.00 | 56 | 1012.1 |
| 20260504172003 | 77 | 189 | 7.0 | 15.0 | 0.00 | 0.00 | 0.00 | 56 | 1012.3 |
| 20260504171502 | 77 | 184 | 6.0 | 15.0 | 0.00 | 0.00 | 0.00 | 56 | 1012.5 |
| 20260504170502 | 77 | 192 | 8.0 | 19.0 | 0.00 | 0.00 | 0.00 | 58 | 1012.7 |
| 20260504151003 | 70 | 193 | 8.0 | 16.0 | 0.00 | 0.00 | 0.00 | 69 | 1013.6 |
| 20260504150502 | 70 | 189 | 7.0 | 20.0 | 0.00 | 0.00 | 0.00 | 69 | 1013.4 |
| 20260504141002 | 67 | 198 | 5.0 | 12.0 | 0.00 | 0.00 | 0.00 | 73 | 1013.8 |
| 20260504140503 | 67 | 204 | 5.0 | 14.0 | 0.00 | 0.00 | 0.00 | 74 | 1014.0 |
| 20260504130503 | 63 | 196 | 4.0 | 10.0 | 0.00 | 0.00 | 0.00 | 79 | 1013.9 |